RADFXSAT (FOX-1B)

Last updated on Fri Dec 19 2025 00:03:11 GMT+0000 (Coordinated Universal Time)

1 43017U 17073E 25352.61307677 .00008047 00000+0 38122-3 0 9994 2 43017 97.4942 218.6761 0159266 230.0703 128.6441 15.08982429438129
UTC large
Height (km)
Speed (km/s)
/
Latitude / Longitude
Inclination (degrees)
Orbital Period (minutes)
Azimuth
Elevation
Range (km)
Doppler Factor

Next 0 passes for location: London (51.5072 / 0.1276)

Sorry there are no passes over London.